When you browse on this site, cookies collect data to enhance your experience and personalize the content and advertising you see.
Visit our Privacy Policy to learn more. By continuing to use the site, you agree to this use of cookies and data.
  • En España
  • Lista de países
  • Para 7 días
  • Temperatura del agua
  • El tiempo en el mapa
  • Informadores
  • user-avatar
    Iniciar sesión

    Tiempo cada hora Ordino

    Hoy, 23 Enero, Jueves

    Tiempo Temperatura Precipitaciones Viento Presión Humedad
    00:00 +3°C° 0 mm 1 mps 633 mmHg 98%
    01:00 +3°C° 3.1 mm 1 mps 633 mmHg 98%
    02:00 +2°C° 3.1 mm 2 mps 632 mmHg 98%
    03:00 +2°C° 3.1 mm 2 mps 632 mmHg 98%
    04:00 +2°C° 2.1 mm 2 mps 632 mmHg 98%
    05:00 +2°C° 2.1 mm 2 mps 631 mmHg 98%
    06:00 +3°C° 0 mm 1 mps 632 mmHg 98%
    07:00 +3°C° 3.7 mm 1 mps 632 mmHg 98%
    08:00 +2°C° 3.7 mm 2 mps 632 mmHg 97%
    09:00 +2°C° 3.7 mm 2 mps 632 mmHg 97%
    10:00 +2°C° 0.9 mm 2 mps 632 mmHg 96%
    11:00 +2°C° 0.9 mm 2 mps 633 mmHg 96%
    12:00 +3°C° 0 mm 2 mps 633 mmHg 95%
    13:00 +3°C° 0.5 mm 2 mps 633 mmHg 95%
    14:00 +2°C° 0.5 mm 2 mps 632 mmHg 95%
    15:00 +2°C° 0.5 mm 2 mps 632 mmHg 95%
    16:00 +1°C° 0 mm 2 mps 632 mmHg 95%
    17:00 +1°C° 0 mm 2 mps 632 mmHg 95%
    18:00 +1°C° 0 mm 1 mps 632 mmHg 95%
    19:00 -2°C° 0 mm 2 mps 632 mmHg 93%
    20:00 -2°C° 0 mm 2 mps 632 mmHg 92%
    21:00 -3°C° 0 mm 2 mps 632 mmHg 90%
    22:00 -3°C° 0 mm 2 mps 632 mmHg 88%
    23:00 -3°C° 0 mm 2 mps 632 mmHg 86%

    Mañana, 24 Enero, Viernes

    Tiempo Temperatura Precipitaciones Viento Presión Humedad
    00:00 -4°C° 0 mm 2 mps 632 mmHg 85%
    01:00 -4°C° 0 mm 2 mps 632 mmHg 84%
    02:00 -4°C° 0 mm 2 mps 631 mmHg 84%
    03:00 -4°C° 0 mm 2 mps 631 mmHg 84%
    04:00 -4°C° 0 mm 2 mps 631 mmHg 83%
    05:00 -4°C° 0 mm 2 mps 631 mmHg 83%
    06:00 -4°C° 0 mm 2 mps 631 mmHg 82%
    07:00 -1°C° 0 mm 1 mps 632 mmHg 82%
    08:00 0°C° 0 mm 1 mps 632 mmHg 82%
    09:00 +1°C° 0 mm 1 mps 633 mmHg 82%
    10:00 +2°C° 0 mm 1 mps 633 mmHg 84%
    11:00 +3°C° 0 mm 1 mps 633 mmHg 85%
    12:00 +4°C° 0 mm 1 mps 633 mmHg 86%
    13:00 +4°C° 0 mm 1 mps 633 mmHg 87%
    14:00 +4°C° 0 mm 1 mps 633 mmHg 89%
    15:00 +4°C° 0 mm 1 mps 632 mmHg 90%
    16:00 +3°C° 0 mm 1 mps 632 mmHg 91%
    17:00 +1°C° 0 mm 1 mps 632 mmHg 92%
    18:00 0°C° 0 mm 1 mps 631 mmHg 92%
    19:00 -1°C° 0 mm 1 mps 631 mmHg 91%
    20:00 -1°C° 0 mm 1 mps 631 mmHg 90%
    21:00 -3°C° 0 mm 2 mps 631 mmHg 89%
    22:00 -3°C° 0 mm 2 mps 631 mmHg 88%
    23:00 -3°C° 0 mm 2 mps 631 mmHg 86%

    Pasado mañana, 25 Enero, Sábado

    Tiempo Temperatura Precipitaciones Viento Presión Humedad
    00:00 -3°C° 0 mm 2 mps 631 mmHg 85%
    01:00 -3°C° 0 mm 2 mps 631 mmHg 85%
    02:00 -3°C° 0 mm 2 mps 631 mmHg 85%
    03:00 -3°C° 0 mm 2 mps 631 mmHg 85%
    04:00 -3°C° 0 mm 2 mps 630 mmHg 85%
    05:00 -3°C° 0 mm 2 mps 630 mmHg 86%
    06:00 -1°C° 0 mm 1 mps 630 mmHg 86%
    07:00 0°C° 0 mm 1 mps 631 mmHg 86%
    08:00 +1°C° 0 mm 1 mps 631 mmHg 86%
    09:00 +2°C° 0 mm 1 mps 632 mmHg 85%
    10:00 +3°C° 0 mm 1 mps 632 mmHg 86%
    11:00 +2°C° 0 mm 2 mps 632 mmHg 86%
    12:00 +3°C° 0 mm 2 mps 632 mmHg 87%
    13:00 +4°C° 0 mm 1 mps 631 mmHg 88%
    14:00 +4°C° 0 mm 1 mps 631 mmHg 89%
    15:00 +4°C° 0 mm 1 mps 631 mmHg 91%
    16:00 +3°C° 0.2 mm 1 mps 630 mmHg 92%
    17:00 +1°C° 0.2 mm 2 mps 630 mmHg 93%
    18:00 +1°C° 0.2 mm 2 mps 630 mmHg 95%
    19:00 +1°C° 0.1 mm 2 mps 630 mmHg 95%
    20:00 +2°C° 0.1 mm 1 mps 630 mmHg 95%
    21:00 +1°C° 0.1 mm 1 mps 631 mmHg 95%
    22:00 +1°C° 0.1 mm 1 mps 630 mmHg 95%
    23:00 +1°C° 0.1 mm 1 mps 630 mmHg 95%

    26 Enero, Domingo

    Tiempo Temperatura Precipitaciones Viento Presión Humedad
    00:00 +1°C° 0.1 mm 1 mps 630 mmHg 95%
    01:00 +1°C° 0 mm 1 mps 630 mmHg 95%
    02:00 +1°C° 0 mm 1 mps 630 mmHg 95%
    03:00 +1°C° 0 mm 1 mps 630 mmHg 95%
    04:00 0°C° 0 mm 1 mps 630 mmHg 94%
    05:00 -1°C° 0 mm 1 mps 630 mmHg 92%
    06:00 -2°C° 0 mm 1 mps 629 mmHg 91%
    07:00 -1°C° 0 mm 1 mps 630 mmHg 90%
    08:00 0°C° 0 mm 1 mps 631 mmHg 89%
    09:00 +1°C° 0 mm 1 mps 632 mmHg 88%
    10:00 +2°C° 0 mm 1 mps 632 mmHg 89%
    11:00 +3°C° 0 mm 1 mps 632 mmHg 89%
    12:00 +3°C° 0 mm 0 mps 632 mmHg 90%
    13:00 +3°C° 0.1 mm 0 mps 632 mmHg 90%
    14:00 +3°C° 0.1 mm 0 mps 632 mmHg 91%
    15:00 +3°C° 0.1 mm 0 mps 632 mmHg 91%
    16:00 +2°C° 0 mm 0 mps 632 mmHg 93%
    17:00 0°C° 0 mm 0 mps 632 mmHg 94%
    18:00 -1°C° 0 mm 0 mps 631 mmHg 95%
    19:00 0°C° 0 mm 1 mps 631 mmHg 93%
    20:00 -1°C° 0 mm 1 mps 631 mmHg 91%
    21:00 -1°C° 0 mm 1 mps 632 mmHg 90%
    22:00 -1°C° 0 mm 1 mps 632 mmHg 90%
    23:00 -1°C° 0 mm 1 mps 632 mmHg 90%

    27 Enero, Lunes

    Tiempo Temperatura Precipitaciones Viento Presión Humedad
    00:00 -1°C° 0 mm 1 mps 632 mmHg 91%
    01:00 -1°C° 0 mm 1 mps 632 mmHg 88%
    02:00 -1°C° 0 mm 1 mps 631 mmHg 86%
    03:00 -2°C° 0 mm 1 mps 631 mmHg 84%
    04:00 -2°C° 0 mm 1 mps 631 mmHg 80%
    05:00 -1°C° 0 mm 1 mps 631 mmHg 76%
    06:00 -3°C° 0 mm 2 mps 631 mmHg 73%
    07:00 0°C° 0 mm 1 mps 632 mmHg 73%
    08:00 +1°C° 0 mm 1 mps 632 mmHg 73%
    09:00 +2°C° 0 mm 1 mps 633 mmHg 73%
    10:00 +3°C° 0 mm 1 mps 633 mmHg 75%
    11:00 +4°C° 0 mm 1 mps 633 mmHg 77%
    12:00 +5°C° 0 mm 1 mps 633 mmHg 79%
    13:00 +5°C° 0 mm 1 mps 633 mmHg 80%
    14:00 +3°C° 0 mm 2 mps 632 mmHg 82%
    15:00 +3°C° 0 mm 2 mps 632 mmHg 83%
    16:00 +2°C° 0 mm 2 mps 631 mmHg 86%
    17:00 +1°C° 0 mm 2 mps 630 mmHg 88%
    18:00 -2°C° 0 mm 2 mps 630 mmHg 91%
    19:00 -1°C° 0 mm 2 mps 630 mmHg 91%
    20:00 -1°C° 0 mm 2 mps 630 mmHg 92%
    21:00 -1°C° 0 mm 2 mps 630 mmHg 92%
    22:00 -1°C° 0 mm 2 mps 630 mmHg 92%
    23:00 -1°C° 0 mm 2 mps 630 mmHg 92%

    28 Enero, Martes

    Tiempo Temperatura Precipitaciones Viento Presión Humedad
    00:00 -1°C° 0 mm 2 mps 630 mmHg 92%
    01:00 -1°C° 0 mm 2 mps 630 mmHg 92%
    02:00 -1°C° 0 mm 2 mps 630 mmHg 92%
    03:00 -1°C° 0 mm 2 mps 629 mmHg 92%
    04:00 +1°C° 0 mm 2 mps 629 mmHg 92%
    05:00 +1°C° 0 mm 2 mps 629 mmHg 92%
    06:00 +1°C° 0 mm 2 mps 629 mmHg 92%
    07:00 +2°C° 0 mm 2 mps 630 mmHg 93%
    08:00 +3°C° 0 mm 1 mps 630 mmHg 94%
    09:00 +4°C° 0 mm 1 mps 630 mmHg 94%
    10:00 +4°C° 0 mm 1 mps 630 mmHg 94%
    11:00 +5°C° 0 mm 1 mps 631 mmHg 94%
    12:00 +5°C° 0 mm 1 mps 631 mmHg 94%
    13:00 +5°C° 0.1 mm 1 mps 631 mmHg 95%
    14:00 +5°C° 0.1 mm 1 mps 630 mmHg 96%
    15:00 +4°C° 0.1 mm 0 mps 630 mmHg 97%
    16:00 +4°C° 0 mm 1 mps 630 mmHg 97%
    17:00 +4°C° 0 mm 1 mps 630 mmHg 97%
    18:00 +3°C° 0 mm 1 mps 630 mmHg 97%
    19:00 +3°C° 0 mm 1 mps 630 mmHg 97%
    20:00 +3°C° 0 mm 1 mps 630 mmHg 96%
    21:00 +3°C° 0 mm 1 mps 630 mmHg 95%
    22:00 +3°C° 0 mm 1 mps 630 mmHg 95%
    23:00 +3°C° 0 mm 1 mps 630 mmHg 95%
    Mostrar más